Retour au catalogue

STARLINK-30894

ActifCommunicationsVLEO
NORAD 58375·PAYLOAD·🇺🇸 United States

Lancé Nov 20, 2023 depuis Vandenberg Space Force Base

Loading…

Prochains Passages (prochaines 24 heures)

TLE

FraisSource: CelesTrak SupGP

Époque: Sep 15, 2026, 02:11 UTC

1 58375C 23178B   26258.09145833 -.00083056  00000+0 -24535-2 0  2587
2 58375  53.1575 197.3319 0001376  92.5878 353.2392 15.34437211    14

Suivez STARLINK-30894 en temps réel avec AllMySat

Download on the App Store